Location: Czu?�w
(50.1404°N, 18.9919°E)
Time: 03:14:00
(UTC+00:00)

Cosmos 2369 - Pass Details

Date: 27 October 2020
Orbit: 841 x 854 km, 71.0° (Epoch: 27 November)

Event Time Altitude Azimuth Distance (km) Brightness Sun altitude
Rises 17:11:47 0° 180° (S) 3,410 6.9 -17.0°
Reaches altitude 10° 17:14:23 10° 173° (S) 2,477 6.1 -17.5°
Maximum altitude 17:19:33 37° 107° (ESE) 1,299 4.2 -18.3°
Enters shadow 17:21:12 31° 72° (ENE) 1,465 4.4 -18.5°
